Time,TemperatureF,DewpointF,PressureIn,WindDirection,WindDirectionDegrees,WindSpeedMPH,WindSpeedGustMPH,Humidity,HourlyPrecipIn,Conditions,Clouds,dailyrainin,SoftwareType,DateUTC
2013-03-07 00:00:00,31.1,11.2,29.18,WNW,291,2.0,4.0,43,0.00,CLR,,0.00,WeatherDisplay:10.37,2013-03-07 05:00:00,
2013-03-07 00:05:00,31.3,11.3,29.18,WNW,291,0.0,4.0,43,0.00,CLR,,0.00,WeatherDisplay:10.37,2013-03-07 05:05:00,
2013-03-07 00:10:00,31.1,11.7,29.18,WNW,291,0.0,4.0,44,0.00,CLR,,0.00,WeatherDisplay:10.37,2013-03-07 05:10:00,
2013-03-07 00:15:00,31.1,11.7,29.18,WNW,291,2.0,4.0,44,0.00,CLR,,0.00,WeatherDisplay:10.37,2013-03-07 05:15:00,
2013-03-07 00:20:00,31.1,11.7,29.18,WNW,291,0.0,4.0,44,0.00,CLR,,0.00,WeatherDisplay:10.37,2013-03-07 05:20:00,
2013-03-07 00:25:00,31.1,12.2,29.18,WNW,291,0.0,3.0,45,0.00,CLR,,0.00,WeatherDisplay:10.37,2013-03-07 05:25:00,
2013-03-07 00:30:00,31.1,12.2,29.18,WNW,291,2.0,5.0,45,0.00,CLR,,0.00,WeatherDisplay:10.37,2013-03-07 05:30:00,
2013-03-07 00:35:00,31.1,12.2,29.18,WNW,292,0.0,4.0,45,0.00,CLR,,0.00,WeatherDisplay:10.37,2013-03-07 05:35:00,
2013-03-07 00:40:00,31.1,12.2,29.18,WNW,298,0.0,6.0,45,0.00,CLR,,0.00,WeatherDisplay:10.37,2013-03-07 05:40:00,
2013-03-07 00:50:00,31.3,12.4,29.18,WNW,299,2.0,4.0,45,0.00,CLR,,0.00,WeatherDisplay:10.37,2013-03-07 05:50:00,
2013-03-07 01:00:00,31.5,12.5,29.15,WNW,301,3.0,6.0,45,0.00,CLR,,0.00,WeatherDisplay:10.37,2013-03-07 06:00:00,
2013-03-07 01:05:00,31.5,12.0,29.15,NW,310,0.0,5.0,44,0.00,CLR,,0.00,WeatherDisplay:10.37,2013-03-07 06:05:00,
2013-03-07 01:10:00,31.5,12.0,29.18,NW,309,3.0,6.0,44,0.00,CLR,,0.00,WeatherDisplay:10.37,2013-03-07 06:10:00,
2013-03-07 01:15:00,31.5,11.5,29.18,NW,308,3.0,6.0,43,0.00,CLR,,0.00,WeatherDisplay:10.37,2013-03-07 06:15:00,
2013-03-07 01:20:00,31.5,11.5,29.18,NW,311,3.0,5.0,43,0.00,CLR,,0.00,WeatherDisplay:10.37,2013-03-07 06:20:00,
2013-03-07 01:30:00,31.5,11.5,29.15,NW,311,2.0,4.0,43,0.00,CLR,,0.00,WeatherDisplay:10.37,2013-03-07 06:30:00,
2013-03-07 01:35:00,31.5,11.5,29.15,NW,311,3.0,6.0,43,0.00,CLR,,0.00,WeatherDisplay:10.37,2013-03-07 06:35:00,
2013-03-07 01:40:00,31.5,11.5,29.18,NW,311,3.0,4.0,43,0.00,CLR,,0.00,WeatherDisplay:10.37,2013-03-07 06:40:00,
2013-03-07 01:45:00,31.5,11.5,29.18,NW,311,3.0,6.0,43,0.00,CLR,,0.00,WeatherDisplay:10.37,2013-03-07 06:45:00,
2013-03-07 01:55:00,31.5,11.5,29.18,NW,310,0.0,5.0,43,0.00,CLR,,0.00,WeatherDisplay:10.37,2013-03-07 06:55:00,
2013-03-07 02:05:00,31.5,11.0,29.18,NW,310,3.0,4.0,42,0.00,CLR,,0.00,WeatherDisplay:10.37,2013-03-07 07:05:00,
2013-03-07 02:10:00,31.5,11.0,29.18,NW,310,0.0,4.0,42,0.00,CLR,,0.00,WeatherDisplay:10.37,2013-03-07 07:10:00,
2013-03-07 02:15:00,31.5,11.0,29.18,NW,310,0.0,4.0,42,0.00,CLR,,0.00,WeatherDisplay:10.37,2013-03-07 07:15:00,
2013-03-07 02:20:00,31.5,11.0,29.18,NW,310,0.0,3.0,42,0.00,CLR,,0.00,WeatherDisplay:10.37,2013-03-07 07:20:00,
2013-03-07 02:25:00,31.5,11.0,29.18,NW,310,0.0,3.0,42,0.00,CLR,,0.00,WeatherDisplay:10.37,2013-03-07 07:25:00,
2013-03-07 02:30:00,31.5,11.0,29.18,NW,310,0.0,4.0,42,0.00,CLR,,0.00,WeatherDisplay:10.37,2013-03-07 07:30:00,
2013-03-07 02:35:00,31.3,11.3,29.18,NW,310,0.0,4.0,43,0.00,CLR,,0.00,WeatherDisplay:10.37,2013-03-07 07:35:00,
2013-03-07 02:40:00,31.3,11.3,29.18,NW,310,1.0,3.0,43,0.00,CLR,,0.00,WeatherDisplay:10.37,2013-03-07 07:40:00,
2013-03-07 02:45:00,31.3,11.3,29.18,NW,309,2.0,5.0,43,0.00,CLR,,0.00,WeatherDisplay:10.37,2013-03-07 07:45:00,
2013-03-07 02:55:00,31.3,11.3,29.18,NW,310,2.0,5.0,43,0.00,CLR,,0.00,WeatherDisplay:10.37,2013-03-07 07:55:00,
2013-03-07 03:00:00,31.3,11.3,29.18,NW,310,3.0,5.0,43,0.00,CLR,,0.00,WeatherDisplay:10.37,2013-03-07 08:00:00,
2013-03-07 03:05:00,31.3,11.3,29.18,NW,310,2.0,4.0,43,0.00,CLR,,0.00,WeatherDisplay:10.37,2013-03-07 08:05:00,
2013-03-07 03:10:00,31.3,11.3,29.18,NW,304,3.0,4.0,43,0.00,CLR,,0.00,WeatherDisplay:10.37,2013-03-07 08:10:00,
2013-03-07 03:20:00,31.3,11.3,29.18,WNW,295,2.0,4.0,43,0.00,CLR,,0.00,WeatherDisplay:10.37,2013-03-07 08:20:00,
2013-03-07 03:30:00,31.3,11.3,29.18,WNW,296,0.0,5.0,43,0.00,CLR,,0.00,WeatherDisplay:10.37,2013-03-07 08:30:00,
2013-03-07 03:40:00,31.3,11.3,29.18,WNW,297,3.0,5.0,43,0.00,CLR,,0.00,WeatherDisplay:10.37,2013-03-07 08:40:00,
2013-03-07 03:45:00,31.3,11.3,29.18,NW,306,3.0,5.0,43,0.00,CLR,,0.00,WeatherDisplay:10.37,2013-03-07 08:45:00,
2013-03-07 03:55:00,31.3,11.3,29.20,WNW,300,2.0,4.0,43,0.00,CLR,,0.00,WeatherDisplay:10.37,2013-03-07 08:55:00,
2013-03-07 04:00:00,31.3,11.9,29.20,WNW,300,3.0,6.0,44,0.00,CLR,,0.00,WeatherDisplay:10.37,2013-03-07 09:00:00,
2013-03-07 04:10:00,31.3,12.4,29.20,NW,304,3.0,6.0,45,0.00,CLR,,0.00,WeatherDisplay:10.37,2013-03-07 09:10:00,
2013-03-07 04:25:00,31.3,11.9,29.20,NW,307,5.0,6.0,44,0.00,CLR,,0.00,WeatherDisplay:10.37,2013-03-07 09:25:00,
2013-03-07 04:30:00,31.3,11.9,29.20,NW,308,5.0,6.0,44,0.00,CLR,,0.00,WeatherDisplay:10.37,2013-03-07 09:30:00,
2013-03-07 04:35:00,31.3,11.3,29.20,NW,309,5.0,6.0,43,0.00,CLR,,0.00,WeatherDisplay:10.37,2013-03-07 09:35:00,
2013-03-07 04:40:00,31.3,11.3,29.20,NW,311,5.0,6.0,43,0.00,CLR,,0.00,WeatherDisplay:10.37,2013-03-07 09:40:00,
2013-03-07 04:45:00,31.5,11.5,29.20,NW,312,5.0,6.0,43,0.00,CLR,,0.00,WeatherDisplay:10.37,2013-03-07 09:45:00,
2013-03-07 04:55:00,31.5,10.4,29.20,NW,307,3.0,6.0,41,0.00,CLR,,0.00,WeatherDisplay:10.37,2013-03-07 09:55:00,
2013-03-07 05:00:00,31.5,10.4,29.20,NW,311,5.0,6.0,41,0.00,CLR,,0.00,WeatherDisplay:10.37,2013-03-07 10:00:00,
2013-03-07 05:05:00,31.5,10.4,29.20,NW,317,5.0,6.0,41,0.00,CLR,,0.00,WeatherDisplay:10.37,2013-03-07 10:05:00,
2013-03-07 05:10:00,31.5,9.9,29.20,NW,314,5.0,6.0,40,0.00,CLR,,0.00,WeatherDisplay:10.37,2013-03-07 10:10:00,
2013-03-07 05:20:00,31.5,9.9,29.20,NW,306,5.0,6.0,40,0.00,CLR,,0.00,WeatherDisplay:10.37,2013-03-07 10:20:00,
2013-03-07 05:25:00,31.5,9.9,29.20,NW,310,5.0,6.0,40,0.00,CLR,,0.00,WeatherDisplay:10.37,2013-03-07 10:25:00,
2013-03-07 05:30:00,31.5,9.9,29.20,NW,312,6.0,8.0,40,0.00,CLR,,0.00,WeatherDisplay:10.37,2013-03-07 10:30:00,
2013-03-07 05:35:00,31.5,9.9,29.20,NW,315,5.0,6.0,40,0.00,CLR,,0.00,WeatherDisplay:10.37,2013-03-07 10:35:00,
2013-03-07 05:45:00,31.3,9.7,29.20,NW,313,5.0,6.0,40,0.00,CLR,,0.00,WeatherDisplay:10.37,2013-03-07 10:45:00,
2013-03-07 05:55:00,31.3,9.7,29.20,NW,314,6.0,8.0,40,0.00,CLR,,0.00,WeatherDisplay:10.37,2013-03-07 10:55:00,
2013-03-07 06:00:00,31.3,9.2,29.20,NW,313,5.0,8.0,39,0.00,CLR,,0.00,WeatherDisplay:10.37,2013-03-07 11:00:00,
2013-03-07 06:05:00,31.3,9.2,29.20,NW,311,5.0,6.0,39,0.00,CLR,,0.00,WeatherDisplay:10.37,2013-03-07 11:05:00,
2013-03-07 06:10:00,31.3,9.2,29.20,NW,315,6.0,8.0,39,0.00,CLR,,0.00,WeatherDisplay:10.37,2013-03-07 11:10:00,
2013-03-07 06:20:00,31.3,9.7,29.20,NW,320,3.0,8.0,40,0.00,CLR,,0.00,WeatherDisplay:10.37,2013-03-07 11:20:00,
2013-03-07 06:25:00,31.3,9.2,29.24,NW,319,5.0,6.0,39,0.00,CLR,,0.00,WeatherDisplay:10.37,2013-03-07 11:25:00,
2013-03-07 06:30:00,31.3,9.2,29.24,NW,318,6.0,6.0,39,0.00,CLR,,0.00,WeatherDisplay:10.37,2013-03-07 11:30:00,
2013-03-07 06:35:00,31.1,9.0,29.24,NW,317,3.0,6.0,39,0.00,CLR,,0.00,WeatherDisplay:10.37,2013-03-07 11:35:00,
2013-03-07 06:40:00,31.1,8.4,29.24,NW,315,3.0,7.0,38,0.00,CLR,,0.00,WeatherDisplay:10.37,2013-03-07 11:40:00,
2013-03-07 06:50:00,31.3,8.6,29.24,NW,316,3.0,6.0,38,0.00,CLR,,0.00,WeatherDisplay:10.37,2013-03-07 11:50:00,
2013-03-07 06:55:00,31.3,8.6,29.24,NW,313,5.0,6.0,38,0.00,CLR,,0.00,WeatherDisplay:10.37,2013-03-07 11:55:00,
2013-03-07 07:00:00,31.3,8.6,29.24,NW,311,5.0,7.0,38,0.00,CLR,,0.00,WeatherDisplay:10.37,2013-03-07 12:00:00,
2013-03-07 07:10:00,31.3,8.0,29.24,NW,307,3.0,6.0,37,0.00,CLR,,0.00,WeatherDisplay:10.37,2013-03-07 12:10:00,
2013-03-07 07:15:00,31.3,8.6,29.24,NW,306,3.0,6.0,38,0.00,CLR,,0.00,WeatherDisplay:10.37,2013-03-07 12:15:00,
2013-03-07 07:20:00,31.3,8.6,29.24,NW,308,3.0,6.0,38,0.00,CLR,,0.00,WeatherDisplay:10.37,2013-03-07 12:20:00,
2013-03-07 07:25:00,31.3,8.6,29.24,NW,312,6.0,6.0,38,0.00,CLR,,0.00,WeatherDisplay:10.37,2013-03-07 12:25:00,
2013-03-07 07:30:00,31.3,8.0,29.24,NW,319,3.0,6.0,37,0.00,CLR,,0.00,WeatherDisplay:10.37,2013-03-07 12:30:00,
2013-03-07 07:40:00,31.4,8.1,29.24,NW,321,3.0,5.0,37,0.00,CLR,,0.00,WeatherDisplay:10.37,2013-03-07 12:40:00,
2013-03-07 07:45:00,31.5,7.5,29.24,NW,319,5.0,6.0,36,0.00,CLR,,0.00,WeatherDisplay:10.37,2013-03-07 12:45:00,
2013-03-07 07:50:00,31.5,7.5,29.24,NW,319,3.0,6.0,36,0.00,CLR,,0.00,WeatherDisplay:10.37,2013-03-07 12:50:00,
2013-03-07 07:55:00,31.6,7.1,29.26,NW,315,5.0,6.0,35,0.00,CLR,,0.00,WeatherDisplay:10.37,2013-03-07 12:55:00,
2013-03-07 08:00:00,31.6,6.4,29.26,NW,315,5.0,6.0,34,0.00,CLR,,0.00,WeatherDisplay:10.37,2013-03-07 13:00:00,
2013-03-07 08:10:00,32.0,6.1,29.26,NW,311,5.0,6.0,33,0.00,CLR,,0.00,WeatherDisplay:10.37,2013-03-07 13:10:00,
2013-03-07 08:15:00,32.2,6.3,29.26,NW,314,3.0,7.0,33,0.00,CLR,,0.00,WeatherDisplay:10.37,2013-03-07 13:15:00,
2013-03-07 08:20:00,32.2,5.6,29.26,NW,313,3.0,6.0,32,0.00,CLR,,0.00,WeatherDisplay:10.37,2013-03-07 13:20:00,
2013-03-07 08:25:00,32.2,5.6,29.26,NW,314,5.0,6.0,32,0.00,CLR,,0.00,WeatherDisplay:10.37,2013-03-07 13:25:00,
2013-03-07 08:30:00,32.3,5.7,29.26,NW,319,5.0,8.0,32,0.00,CLR,,0.00,WeatherDisplay:10.37,2013-03-07 13:30:00,
2013-03-07 08:35:00,32.4,5.7,29.26,NW,322,5.0,6.0,32,0.00,CLR,,0.00,WeatherDisplay:10.37,2013-03-07 13:35:00,
2013-03-07 08:40:00,32.4,5.1,29.26,NW,322,6.0,6.0,31,0.00,CLR,,0.00,WeatherDisplay:10.37,2013-03-07 13:40:00,
2013-03-07 08:45:00,32.5,5.2,29.26,NW,321,5.0,6.0,31,0.00,CLR,,0.00,WeatherDisplay:10.37,2013-03-07 13:45:00,
2013-03-07 08:50:00,32.6,5.3,29.26,NW,318,5.0,7.0,31,0.00,CLR,,0.00,WeatherDisplay:10.37,2013-03-07 13:50:00,
2013-03-07 08:55:00,32.7,4.6,29.26,NW,316,5.0,6.0,30,0.00,CLR,,0.00,WeatherDisplay:10.37,2013-03-07 13:55:00,
2013-03-07 09:00:00,32.9,4.8,29.26,NW,314,5.0,7.0,30,0.00,CLR,,0.00,WeatherDisplay:10.37,2013-03-07 14:00:00,
2013-03-07 09:05:00,33.1,5.0,29.26,NW,313,5.0,6.0,30,0.00,CLR,,0.00,WeatherDisplay:10.37,2013-03-07 14:05:00,
2013-03-07 09:10:00,33.3,5.2,29.26,NW,313,5.0,6.0,30,0.00,CLR,,0.00,WeatherDisplay:10.37,2013-03-07 14:10:00,
2013-03-07 09:15:00,33.5,3.8,29.26,NW,316,5.0,7.0,28,0.00,CLR,,0.00,WeatherDisplay:10.37,2013-03-07 14:15:00,
2013-03-07 09:20:00,33.6,1.5,29.26,NW,314,5.0,6.0,25,0.00,CLR,,0.00,WeatherDisplay:10.37,2013-03-07 14:20:00,
2013-03-07 09:25:00,34.0,1.8,29.29,NW,313,5.0,7.0,25,0.00,CLR,,0.00,WeatherDisplay:10.37,2013-03-07 14:25:00,
2013-03-07 09:30:00,34.2,-0.7,29.29,NW,311,6.0,6.0,22,0.00,CLR,,0.00,WeatherDisplay:10.37,2013-03-07 14:30:00,
2013-03-07 09:35:00,34.4,-0.6,29.29,NW,313,5.0,6.0,22,0.00,CLR,,0.00,WeatherDisplay:10.37,2013-03-07 14:35:00,
2013-03-07 09:40:00,34.8,-0.2,29.26,NW,314,3.0,6.0,22,0.00,CLR,,0.00,WeatherDisplay:10.37,2013-03-07 14:40:00,
2013-03-07 09:45:00,34.9,-0.2,29.26,NW,314,6.0,6.0,22,0.00,CLR,,0.00,WeatherDisplay:10.37,2013-03-07 14:45:00,
2013-03-07 09:50:00,34.9,-2.2,29.26,NW,321,6.0,8.0,20,0.00,CLR,,0.00,WeatherDisplay:10.37,2013-03-07 14:50:00,
2013-03-07 09:55:00,35.1,-2.1,29.26,NW,325,6.0,6.0,20,0.00,CLR,,0.00,WeatherDisplay:10.37,2013-03-07 14:55:00,
2013-03-07 10:00:00,35.2,-1.9,29.26,NW,322,6.0,8.0,20,0.00,CLR,,0.00,WeatherDisplay:10.37,2013-03-07 15:00:00,
2013-03-07 10:10:00,35.8,-2.5,29.26,NW,321,5.0,7.0,19,0.00,CLR,,0.00,WeatherDisplay:10.37,2013-03-07 15:10:00,
2013-03-07 10:15:00,36.0,-2.4,29.26,NW,317,6.0,6.0,19,0.00,CLR,,0.00,WeatherDisplay:10.37,2013-03-07 15:15:00,
2013-03-07 10:20:00,36.1,-2.2,29.26,NW,319,5.0,6.0,19,0.00,CLR,,0.00,WeatherDisplay:10.37,2013-03-07 15:20:00,
2013-03-07 10:25:00,36.1,-2.2,29.26,NW,318,6.0,8.0,19,0.00,CLR,,0.00,WeatherDisplay:10.37,2013-03-07 15:25:00,
2013-03-07 10:35:00,36.5,-1.9,29.26,NW,319,5.0,7.0,19,0.00,CLR,,0.00,WeatherDisplay:10.37,2013-03-07 15:35:00,
2013-03-07 10:40:00,36.9,-1.6,29.26,NW,320,6.0,8.0,19,0.00,CLR,,0.00,WeatherDisplay:10.37,2013-03-07 15:40:00,
2013-03-07 10:45:00,36.7,-1.8,29.26,NW,322,6.0,9.0,19,0.00,CLR,,0.00,WeatherDisplay:10.37,2013-03-07 15:45:00,
2013-03-07 10:55:00,37.0,-1.5,29.29,NW,321,7.0,8.0,19,0.00,CLR,,0.00,WeatherDisplay:10.37,2013-03-07 15:55:00,
2013-03-07 11:00:00,37.6,-1.0,29.29,NW,321,5.0,8.0,19,0.00,CLR,,0.00,WeatherDisplay:10.37,2013-03-07 16:00:00,
2013-03-07 11:05:00,37.5,-1.1,29.29,NW,321,5.0,8.0,19,0.00,CLR,,0.00,WeatherDisplay:10.37,2013-03-07 16:05:00,
2013-03-07 11:10:00,37.8,-0.9,29.29,NW,323,5.0,7.0,19,0.00,CLR,,0.00,WeatherDisplay:10.37,2013-03-07 16:10:00,
2013-03-07 11:15:00,37.6,-1.0,29.29,NW,315,6.0,7.0,19,0.00,CLR,,0.00,WeatherDisplay:10.37,2013-03-07 16:15:00,
2013-03-07 11:20:00,37.9,-0.8,29.29,NW,318,6.0,8.0,19,0.00,CLR,,0.00,WeatherDisplay:10.37,2013-03-07 16:20:00,
2013-03-07 11:25:00,38.0,-0.7,29.29,NW,321,6.0,8.0,19,0.00,CLR,,0.00,WeatherDisplay:10.37,2013-03-07 16:25:00,
2013-03-07 11:30:00,38.5,-0.3,29.29,NW,318,5.0,7.0,19,0.00,CLR,,0.00,WeatherDisplay:10.37,2013-03-07 16:30:00,
2013-03-07 11:35:00,38.8,0.0,29.29,NW,318,5.0,6.0,19,0.00,CLR,,0.00,WeatherDisplay:10.37,2013-03-07 16:35:00,
2013-03-07 11:45:00,39.2,-0.8,29.29,NNW,327,5.0,6.0,18,0.00,CLR,,0.00,WeatherDisplay:10.37,2013-03-07 16:45:00,
2013-03-07 11:55:00,39.2,-0.8,29.29,NNW,329,6.0,8.0,18,0.00,CLR,,0.00,WeatherDisplay:10.37,2013-03-07 16:55:00,
2013-03-07 12:00:00,39.2,-0.8,29.29,NNW,329,5.0,8.0,18,0.00,CLR,,0.00,WeatherDisplay:10.37,2013-03-07 17:00:00,
2013-03-07 12:10:00,38.8,0.0,29.29,NNW,330,6.0,8.0,19,0.00,CLR,,0.00,WeatherDisplay:10.37,2013-03-07 17:10:00,
2013-03-07 12:15:00,38.7,-0.1,29.29,NNW,327,6.0,8.0,19,0.00,CLR,,0.00,WeatherDisplay:10.37,2013-03-07 17:15:00,
2013-03-07 12:25:00,39.2,-0.8,29.29,NW,322,6.0,6.0,18,0.00,CLR,,0.00,WeatherDisplay:10.37,2013-03-07 17:25:00,
2013-03-07 12:30:00,39.5,-0.6,29.29,NW,323,5.0,7.0,18,0.00,CLR,,0.00,WeatherDisplay:10.37,2013-03-07 17:30:00,
2013-03-07 12:35:00,39.2,-0.8,29.29,NNW,327,6.0,8.0,18,0.00,CLR,,0.00,WeatherDisplay:10.37,2013-03-07 17:35:00,
2013-03-07 12:40:00,39.4,-0.7,29.29,NNW,328,6.0,8.0,18,0.00,CLR,,0.00,WeatherDisplay:10.37,2013-03-07 17:40:00,
2013-03-07 12:45:00,39.7,-0.4,29.29,NW,326,6.0,8.0,18,0.00,CLR,,0.00,WeatherDisplay:10.37,2013-03-07 17:45:00,
2013-03-07 12:50:00,39.7,-0.4,29.29,NW,325,6.0,8.0,18,0.00,CLR,,0.00,WeatherDisplay:10.37,2013-03-07 17:50:00,
2013-03-07 13:00:00,39.4,-0.7,29.29,NW,319,6.0,8.0,18,0.00,CLR,,0.00,WeatherDisplay:10.37,2013-03-07 18:00:00,
2013-03-07 13:05:00,39.4,-0.7,29.29,NW,321,6.0,8.0,18,0.00,CLR,,0.00,WeatherDisplay:10.37,2013-03-07 18:05:00,
2013-03-07 13:10:00,39.7,-0.4,29.29,NW,321,6.0,8.0,18,0.00,CLR,,0.00,WeatherDisplay:10.37,2013-03-07 18:10:00,
2013-03-07 13:15:00,39.9,-0.3,29.29,NW,321,6.0,8.0,18,0.00,CLR,,0.00,WeatherDisplay:10.37,2013-03-07 18:15:00,
2013-03-07 13:20:00,40.3,0.1,29.29,NW,320,5.0,8.0,18,0.00,CLR,,0.00,WeatherDisplay:10.37,2013-03-07 18:20:00,
2013-03-07 13:30:00,41.1,0.7,29.26,NW,316,6.0,8.0,18,0.00,CLR,,0.00,WeatherDisplay:10.37,2013-03-07 18:30:00,
2013-03-07 13:35:00,40.5,0.2,29.26,NW,318,6.0,7.0,18,0.00,CLR,,0.00,WeatherDisplay:10.37,2013-03-07 18:35:00,
2013-03-07 13:40:00,39.5,-0.6,29.26,NW,326,7.0,8.0,18,0.00,CLR,,0.00,WeatherDisplay:10.37,2013-03-07 18:40:00,
2013-03-07 13:45:00,39.8,-0.4,29.26,NNW,332,5.0,7.0,18,0.00,CLR,,0.00,WeatherDisplay:10.37,2013-03-07 18:45:00,
2013-03-07 13:55:00,39.9,-0.2,29.26,NW,322,5.0,7.0,18,0.00,CLR,,0.00,WeatherDisplay:10.37,2013-03-07 18:55:00,
2013-03-07 14:00:00,40.4,0.2,29.26,NW,319,2.0,6.0,18,0.00,CLR,,0.00,WeatherDisplay:10.37,2013-03-07 19:00:00,
2013-03-07 14:10:00,41.1,0.7,29.26,NW,325,3.0,6.0,18,0.00,CLR,,0.00,WeatherDisplay:10.37,2013-03-07 19:10:00,
2013-03-07 14:15:00,40.6,0.4,29.26,NNW,332,5.0,6.0,18,0.00,CLR,,0.00,WeatherDisplay:10.37,2013-03-07 19:15:00,
2013-03-07 14:25:00,39.9,-0.2,29.26,NNW,334,5.0,6.0,18,0.00,CLR,,0.00,WeatherDisplay:10.37,2013-03-07 19:25:00,
2013-03-07 14:35:00,39.7,-0.4,29.26,NNW,330,6.0,6.0,18,0.00,CLR,,0.00,WeatherDisplay:10.37,2013-03-07 19:35:00,
2013-03-07 14:45:00,39.3,-0.7,29.26,NNW,335,6.0,7.0,18,0.00,CLR,,0.00,WeatherDisplay:10.37,2013-03-07 19:45:00,
2013-03-07 14:50:00,39.1,-0.9,29.26,NNW,330,6.0,6.0,18,0.00,CLR,,0.00,WeatherDisplay:10.37,2013-03-07 19:50:00,
2013-03-07 14:55:00,38.9,0.1,29.26,NNW,335,6.0,6.0,19,0.00,CLR,,0.00,WeatherDisplay:10.37,2013-03-07 19:55:00,
2013-03-07 15:00:00,38.5,-0.3,29.26,NNW,337,6.0,8.0,19,0.00,CLR,,0.00,WeatherDisplay:10.37,2013-03-07 20:00:00,
2013-03-07 15:05:00,38.1,-0.6,29.26,NNW,337,7.0,8.0,19,0.00,CLR,,0.00,WeatherDisplay:10.37,2013-03-07 20:05:00,
2013-03-07 15:10:00,37.9,-0.7,29.29,NNW,340,6.0,8.0,19,0.00,CLR,,0.00,WeatherDisplay:10.37,2013-03-07 20:10:00,
2013-03-07 15:15:00,38.5,-0.3,29.29,NNW,336,5.0,6.0,19,0.00,CLR,,0.00,WeatherDisplay:10.37,2013-03-07 20:15:00,
2013-03-07 15:20:00,38.3,-0.4,29.29,NNW,336,6.0,8.0,19,0.00,CLR,,0.00,WeatherDisplay:10.37,2013-03-07 20:20:00,
2013-03-07 15:25:00,38.5,-0.3,29.29,NNW,338,5.0,6.0,19,0.00,CLR,,0.00,WeatherDisplay:10.37,2013-03-07 20:25:00,
2013-03-07 15:30:00,38.7,-0.1,29.29,NNW,338,3.0,6.0,19,0.00,CLR,,0.00,WeatherDisplay:10.37,2013-03-07 20:30:00,
2013-03-07 15:35:00,38.8,0.0,29.29,NNW,343,3.0,5.0,19,0.00,CLR,,0.00,WeatherDisplay:10.37,2013-03-07 20:35:00,
2013-03-07 15:40:00,38.2,-0.5,29.29,NNW,340,5.0,6.0,19,0.00,CLR,,0.00,WeatherDisplay:10.37,2013-03-07 20:40:00,
2013-03-07 15:45:00,38.0,-0.7,29.29,NNW,332,5.0,6.0,19,0.00,CLR,,0.00,WeatherDisplay:10.37,2013-03-07 20:45:00,
2013-03-07 15:50:00,37.8,-0.9,29.29,NNW,334,6.0,8.0,19,0.00,CLR,,0.00,WeatherDisplay:10.37,2013-03-07 20:50:00,
2013-03-07 16:00:00,37.6,-1.0,29.29,NNW,332,6.0,6.0,19,0.00,CLR,,0.00,WeatherDisplay:10.37,2013-03-07 21:00:00,
2013-03-07 16:10:00,37.6,-1.0,29.29,NNW,331,5.0,6.0,19,0.00,CLR,,0.00,WeatherDisplay:10.37,2013-03-07 21:10:00,
2013-03-07 16:15:00,37.5,-1.1,29.29,NNW,331,5.0,6.0,19,0.00,CLR,,0.00,WeatherDisplay:10.37,2013-03-07 21:15:00,
2013-03-07 16:25:00,37.4,-1.2,29.29,NNW,337,5.0,6.0,19,0.00,CLR,,0.00,WeatherDisplay:10.37,2013-03-07 21:25:00,
2013-03-07 16:35:00,37.4,-1.2,29.29,NNW,342,5.0,6.0,19,0.00,CLR,,0.00,WeatherDisplay:10.37,2013-03-07 21:35:00,
2013-03-07 16:40:00,37.4,-1.2,29.29,NNW,341,3.0,6.0,19,0.00,CLR,,0.00,WeatherDisplay:10.37,2013-03-07 21:40:00,
2013-03-07 16:45:00,37.6,-1.0,29.29,NNW,341,2.0,4.0,19,0.00,CLR,,0.00,WeatherDisplay:10.37,2013-03-07 21:45:00,
2013-03-07 16:50:00,37.9,-0.8,29.29,NNW,341,2.0,4.0,19,0.00,CLR,,0.00,WeatherDisplay:10.37,2013-03-07 21:50:00,
2013-03-07 16:55:00,37.8,-0.9,29.29,NNW,341,3.0,4.0,19,0.00,CLR,,0.00,WeatherDisplay:10.37,2013-03-07 21:55:00,
2013-03-07 17:05:00,37.3,-1.3,29.29,NNW,341,3.0,6.0,19,0.00,CLR,,0.00,WeatherDisplay:10.37,2013-03-07 22:05:00,
2013-03-07 17:10:00,37.0,-1.5,29.29,NNW,341,3.0,6.0,19,0.00,CLR,,0.00,WeatherDisplay:10.37,2013-03-07 22:10:00,
2013-03-07 17:15:00,36.9,-1.6,29.29,NNW,341,3.0,4.0,19,0.00,CLR,,0.00,WeatherDisplay:10.37,2013-03-07 22:15:00,
2013-03-07 17:25:00,36.7,-1.8,29.29,NNW,341,2.0,4.0,19,0.00,CLR,,0.00,WeatherDisplay:10.37,2013-03-07 22:25:00,
2013-03-07 17:30:00,36.6,-1.9,29.29,NNW,341,2.0,4.0,19,0.00,CLR,,0.00,WeatherDisplay:10.37,2013-03-07 22:30:00,
2013-03-07 17:40:00,36.3,-2.1,29.29,NNW,335,5.0,6.0,19,0.00,CLR,,0.00,WeatherDisplay:10.37,2013-03-07 22:40:00,
2013-03-07 17:45:00,36.1,-2.2,29.29,NW,326,3.0,6.0,19,0.00,CLR,,0.00,WeatherDisplay:10.37,2013-03-07 22:45:00,
2013-03-07 17:50:00,36.1,-2.2,29.29,NW,323,2.0,4.0,19,0.00,CLR,,0.00,WeatherDisplay:10.37,2013-03-07 22:50:00,
2013-03-07 17:55:00,36.1,-2.3,29.29,NW,323,2.0,4.0,19,0.00,CLR,,0.00,WeatherDisplay:10.37,2013-03-07 22:55:00,
2013-03-07 18:00:00,35.8,-2.5,29.29,NW,323,3.0,5.0,19,0.00,CLR,,0.00,WeatherDisplay:10.37,2013-03-07 23:00:00,
2013-03-07 18:05:00,35.6,-2.7,29.29,NNW,327,5.0,6.0,19,0.00,CLR,,0.00,WeatherDisplay:10.37,2013-03-07 23:05:00,
2013-03-07 18:10:00,35.4,-1.8,29.29,NNW,335,5.0,6.0,20,0.00,CLR,,0.00,WeatherDisplay:10.37,2013-03-07 23:10:00,
2013-03-07 18:15:00,35.4,-1.8,29.29,NNW,339,2.0,4.0,20,0.00,CLR,,0.00,WeatherDisplay:10.37,2013-03-07 23:15:00,
2013-03-07 18:20:00,35.2,-1.9,29.29,NNW,339,3.0,4.0,20,0.00,CLR,,0.00,WeatherDisplay:10.37,2013-03-07 23:20:00,
2013-03-07 18:25:00,35.0,-2.1,29.29,NNW,339,3.0,4.0,20,0.00,CLR,,0.00,WeatherDisplay:10.37,2013-03-07 23:25:00,
2013-03-07 18:30:00,34.9,-2.2,29.29,NNW,333,3.0,5.0,20,0.00,CLR,,0.00,WeatherDisplay:10.37,2013-03-07 23:30:00,
2013-03-07 18:35:00,34.7,-2.4,29.29,NNW,330,3.0,6.0,20,0.00,CLR,,0.00,WeatherDisplay:10.37,2013-03-07 23:35:00,
2013-03-07 18:45:00,34.5,-2.5,29.32,NNW,331,3.0,5.0,20,0.00,CLR,,0.00,WeatherDisplay:10.37,2013-03-07 23:45:00,
2013-03-07 18:50:00,34.5,-2.5,29.32,NNW,331,5.0,6.0,20,0.00,CLR,,0.00,WeatherDisplay:10.37,2013-03-07 23:50:00,
2013-03-07 18:55:00,34.3,-2.7,29.32,NNW,329,5.0,6.0,20,0.00,CLR,,0.00,WeatherDisplay:10.37,2013-03-07 23:55:00,
2013-03-07 19:00:00,34.3,-2.7,29.32,NNW,327,3.0,5.0,20,0.00,CLR,,0.00,WeatherDisplay:10.37,2013-03-08 00:00:00,
2013-03-07 19:05:00,34.3,-2.7,29.32,NW,326,3.0,6.0,20,0.00,CLR,,0.00,WeatherDisplay:10.37,2013-03-08 00:05:00,
2013-03-07 19:15:00,34.2,-2.8,29.32,NW,326,3.0,5.0,20,0.00,CLR,,0.00,WeatherDisplay:10.37,2013-03-08 00:15:00,
2013-03-07 19:20:00,34.0,-3.0,29.32,NW,326,3.0,4.0,20,0.00,CLR,,0.00,WeatherDisplay:10.37,2013-03-08 00:20:00,
2013-03-07 19:25:00,34.0,-3.0,29.32,NW,326,2.0,4.0,20,0.00,CLR,,0.00,WeatherDisplay:10.37,2013-03-08 00:25:00,
2013-03-07 19:30:00,34.0,-3.0,29.32,NW,326,3.0,4.0,20,0.00,CLR,,0.00,WeatherDisplay:10.37,2013-03-08 00:30:00,
2013-03-07 19:35:00,34.0,-3.0,29.32,NW,326,2.0,4.0,20,0.00,CLR,,0.00,WeatherDisplay:10.37,2013-03-08 00:35:00,
2013-03-07 19:40:00,33.8,-1.1,29.32,NW,326,3.0,4.0,22,0.00,CLR,,0.00,WeatherDisplay:10.37,2013-03-08 00:40:00,
2013-03-07 19:45:00,33.8,-1.1,29.32,NW,326,2.0,4.0,22,0.00,CLR,,0.00,WeatherDisplay:10.37,2013-03-08 00:45:00,
2013-03-07 19:50:00,33.8,-1.1,29.32,NW,326,2.0,3.0,22,0.00,CLR,,0.00,WeatherDisplay:10.37,2013-03-08 00:50:00,
2013-03-07 19:55:00,33.8,-1.1,29.32,NW,326,0.0,3.0,22,0.00,CLR,,0.00,WeatherDisplay:10.37,2013-03-08 00:55:00,
2013-03-07 20:00:00,33.8,-1.1,29.32,NW,326,0.0,3.0,22,0.00,CLR,,0.00,WeatherDisplay:10.37,2013-03-08 01:00:00,
2013-03-07 20:05:00,33.8,-3.1,29.32,NW,326,3.0,4.0,20,0.00,CLR,,0.00,WeatherDisplay:10.37,2013-03-08 01:05:00,
2013-03-07 20:10:00,33.9,-3.0,29.32,NW,326,3.0,4.0,20,0.00,CLR,,0.00,WeatherDisplay:10.37,2013-03-08 01:10:00,
2013-03-07 20:15:00,33.9,-3.0,29.32,NW,326,2.0,4.0,20,0.00,CLR,,0.00,WeatherDisplay:10.37,2013-03-08 01:15:00,
2013-03-07 20:20:00,33.9,-3.0,29.32,NW,326,3.0,5.0,20,0.00,CLR,,0.00,WeatherDisplay:10.37,2013-03-08 01:20:00,
2013-03-07 20:25:00,33.8,-3.1,29.32,NW,326,3.0,5.0,20,0.00,CLR,,0.00,WeatherDisplay:10.37,2013-03-08 01:25:00,
2013-03-07 20:30:00,34.0,-3.0,29.32,NW,326,5.0,5.0,20,0.00,CLR,,0.00,WeatherDisplay:10.37,2013-03-08 01:30:00,
2013-03-07 20:40:00,33.8,-3.1,29.32,NW,326,3.0,5.0,20,0.00,CLR,,0.00,WeatherDisplay:10.37,2013-03-08 01:40:00,
2013-03-07 20:45:00,33.8,-3.2,29.32,NW,326,2.0,4.0,20,0.00,CLR,,0.00,WeatherDisplay:10.37,2013-03-08 01:45:00,
2013-03-07 20:50:00,33.6,-3.3,29.32,NW,326,2.0,4.0,20,0.00,CLR,,0.00,WeatherDisplay:10.37,2013-03-08 01:50:00,
2013-03-07 20:55:00,33.4,-3.4,29.32,NW,326,2.0,3.0,20,0.00,CLR,,0.00,WeatherDisplay:10.37,2013-03-08 01:55:00,
2013-03-07 21:05:00,33.4,-3.4,29.32,NW,326,2.0,3.0,20,0.00,CLR,,0.00,WeatherDisplay:10.37,2013-03-08 02:05:00,
2013-03-07 21:20:00,33.3,-3.6,29.32,NW,326,0.0,0.0,20,0.00,CLR,,0.00,WeatherDisplay:10.37,2013-03-08 02:20:00,
2013-03-07 21:25:00,33.1,-3.7,29.32,NW,326,0.0,0.0,20,0.00,CLR,,0.00,WeatherDisplay:10.37,2013-03-08 02:25:00,
2013-03-07 21:30:00,33.1,-3.7,29.32,NW,326,0.0,0.0,20,0.00,CLR,,0.00,WeatherDisplay:10.37,2013-03-08 02:30:00,
2013-03-07 21:35:00,33.1,-3.7,29.32,NW,326,0.0,0.0,20,0.00,CLR,,0.00,WeatherDisplay:10.37,2013-03-08 02:35:00,
2013-03-07 21:40:00,33.1,-3.7,29.29,NW,326,0.0,0.0,20,0.00,CLR,,0.00,WeatherDisplay:10.37,2013-03-08 02:40:00,
2013-03-07 21:45:00,32.9,-3.9,29.29,NW,326,0.0,3.0,20,0.00,CLR,,0.00,WeatherDisplay:10.37,2013-03-08 02:45:00,
2013-03-07 21:50:00,32.7,-4.0,29.29,NW,326,2.0,3.0,20,0.00,CLR,,0.00,WeatherDisplay:10.37,2013-03-08 02:50:00,
2013-03-07 21:55:00,32.7,-4.0,29.32,NW,326,0.0,2.0,20,0.00,CLR,,0.00,WeatherDisplay:10.37,2013-03-08 02:55:00,
2013-03-07 22:00:00,32.5,-4.2,29.32,NW,326,0.0,0.0,20,0.00,CLR,,0.00,WeatherDisplay:10.37,2013-03-08 03:00:00,
2013-03-07 22:05:00,32.5,-4.2,29.32,NW,326,0.0,0.0,20,0.00,CLR,,0.00,WeatherDisplay:10.37,2013-03-08 03:05:00,
2013-03-07 22:10:00,32.4,-4.3,29.32,NW,326,0.0,0.0,20,0.00,CLR,,0.00,WeatherDisplay:10.37,2013-03-08 03:10:00,
2013-03-07 22:20:00,32.0,-4.6,29.32,NW,326,0.0,0.0,20,0.00,CLR,,0.00,WeatherDisplay:10.37,2013-03-08 03:20:00,
2013-03-07 22:25:00,31.8,-4.8,29.32,NW,326,0.0,0.0,20,0.00,CLR,,0.00,WeatherDisplay:10.37,2013-03-08 03:25:00,
2013-03-07 22:30:00,31.5,-5.1,29.32,NW,326,0.0,0.0,20,0.00,CLR,,0.00,WeatherDisplay:10.37,2013-03-08 03:30:00,
2013-03-07 22:35:00,31.1,-5.4,29.32,NW,326,0.0,0.0,20,0.00,CLR,,0.00,WeatherDisplay:10.37,2013-03-08 03:35:00,
2013-03-07 22:40:00,30.9,-5.5,29.32,NW,326,0.0,0.0,20,0.00,CLR,,0.00,WeatherDisplay:10.37,2013-03-08 03:40:00,
2013-03-07 22:45:00,30.6,-5.8,29.32,NW,326,0.0,0.0,20,0.00,CLR,,0.00,WeatherDisplay:10.37,2013-03-08 03:45:00,
2013-03-07 22:50:00,30.2,-6.1,29.32,NW,326,0.0,0.0,20,0.00,CLR,,0.00,WeatherDisplay:10.37,2013-03-08 03:50:00,
2013-03-07 22:55:00,29.7,-6.5,29.32,NW,326,0.0,0.0,20,0.00,CLR,,0.00,WeatherDisplay:10.37,2013-03-08 03:55:00,
2013-03-07 23:00:00,29.3,-6.9,29.32,NW,326,0.0,0.0,20,0.00,CLR,,0.00,WeatherDisplay:10.37,2013-03-08 04:00:00,
2013-03-07 23:05:00,28.9,-7.2,29.32,NW,326,0.0,0.0,20,0.00,CLR,,0.00,WeatherDisplay:10.37,2013-03-08 04:05:00,
2013-03-07 23:10:00,28.5,-7.5,29.32,NW,326,0.0,0.0,20,0.00,CLR,,0.00,WeatherDisplay:10.37,2013-03-08 04:10:00,
2013-03-07 23:15:00,28.2,-6.8,29.32,NW,326,0.0,0.0,21,0.00,CLR,,0.00,WeatherDisplay:10.37,2013-03-08 04:15:00,
2013-03-07 23:20:00,28.0,-7.0,29.32,NW,326,0.0,0.0,21,0.00,CLR,,0.00,WeatherDisplay:10.37,2013-03-08 04:20:00,
2013-03-07 23:25:00,27.9,-5.2,29.32,NW,326,0.0,0.0,23,0.00,CLR,,0.00,WeatherDisplay:10.37,2013-03-08 04:25:00,
2013-03-07 23:30:00,27.7,-5.4,29.32,NW,326,0.0,0.0,23,0.00,CLR,,0.00,WeatherDisplay:10.37,2013-03-08 04:30:00,
2013-03-07 23:35:00,27.5,-5.5,29.32,NW,326,0.0,0.0,23,0.00,CLR,,0.00,WeatherDisplay:10.37,2013-03-08 04:35:00,
2013-03-07 23:40:00,27.7,-2.8,29.35,NW,326,0.0,0.0,26,0.00,CLR,,0.00,WeatherDisplay:10.37,2013-03-08 04:40:00,
2013-03-07 23:45:00,27.9,-2.7,29.35,NW,326,0.0,0.0,26,0.00,CLR,,0.00,WeatherDisplay:10.37,2013-03-08 04:45:00,
2013-03-07 23:50:00,28.0,-5.1,29.35,NW,326,0.0,0.0,23,0.00,CLR,,0.00,WeatherDisplay:10.37,2013-03-08 04:50:00,
2013-03-07 23:55:00,28.0,-5.1,29.32,NW,326,0.0,0.0,23,0.00,CLR,,0.00,WeatherDisplay:10.37,2013-03-08 04:55:00,